Location: Limerick
(52.6650°N, 8.6230°W)
Time: 02:21:38
(UTC+01:00)

ISS - Visible Passes

Search period start: 21 September 2017 00:00
Search period end: 01 October 2017 00:00
Orbit: 402 x 407 km, 51.6° (Epoch: 21 September)

Date Brightness Start Highest point End Pass type
(mag) Time Alt. Az. Time Alt. Az. Time Alt. Az.
26 Sep -1.8 21:01:11 10° SSW 21:02:25 16° S 21:02:25 16° S visible
27 Sep -1.7 20:09:58 10° SSE 20:11:25 12° SE 20:12:33 11° ESE visible
27 Sep -1.6 21:44:08 10° SW 21:45:13 19° SW 21:45:13 19° SW visible
28 Sep -2.9 20:52:02 10° SW 20:54:58 30° SSE 20:55:11 30° SE visible
29 Sep -2.3 20:00:10 10° SSW 20:02:43 21° SSE 20:05:00 12° E visible
29 Sep -2.5 21:35:33 10° WSW 21:37:39 35° SW 21:37:39 35° SW visible
30 Sep -3.4 20:43:16 10° SW 20:46:26 46° SSE 20:47:23 34° ESE visible
30 Sep -0.8 22:19:29 10° W 22:20:01 14° W 22:20:01 14° W visible
